Tracking 30923 objects as of 1-Jul-2025
HD Live streaming from Space Station
objects crossing your sky now

STARLINK-4774

Track STARLINK-4774 now!
10-day predictions
STARLINK-4774 is classified as:


NORAD ID: 56138
Int'l Code: 2023-046AY
Perigee: 565.4 km
Apogee: 567.1 km
Inclination: 43.0 °
Period: 95.8 minutes
Semi major axis: 6937 km
RCS: Unknown
Launch date: March 29, 2023
Source: United States (US)
Launch site: AIR FORCE EASTERN TEST RANGE (AFETR)
Your satellite tracking list
Your tracking list is empty




NASA's NSSDC Master Catalog

Two Line Element Set (TLE):
1 56138U 23046AY  25181.41249374 -.00000162  00000-0  30995-5 0  9990
2 56138  43.0043  76.7133 0001193 262.7839  97.2868 15.02534495124260
Source of the keplerian elements: AFSPC